Burlington, IA

8:39 AM CDT on September 25, 2016 (GMT -0500)
Burlington Regional

Weather History for KBRL - May, 2014

Change the Weather History Date:

Friday, May 23, 2014

  Actual Average Record
Temperature  
Mean Temperature 63 °F 66 °F  
Max Temperature 79 °F 77 °F 92 °F (1939)
Min Temperature 46 °F 55 °F 34 °F (1963)
Degree Days  
Heating Degree Days 2 3  
Month to date heating degree days 143 109  
Since 1 July heating degree days 6824 5571  
Cooling Degree Days 0 4  
Month to date cooling degree days 57 48  
Year to date cooling degree days 65 68  
Growing Degree Days 12 (Base 50)    
Moisture  
Dew Point 48 °F    
Average Humidity 65    
Maximum Humidity 100    
Minimum Humidity 30    
Precipitation  
Precipitation 0.00 in 0.15 in 0.79 in (1993)
Month to date precipitation 1.27 3.66  
Year to date precipitation 10.85 13.07  
Sea Level Pressure  
Sea Level Pressure 30.14 in    
Wind  
Wind Speed 6 mph (NNE)    
Max Wind Speed 13 mph    
Max Gust Speed 16 mph    
Visibility 10 miles    
Events      
T = Trace of Precipitation, MM = Missing Value Source: NWS Daily Summary

Daily Weather History Graph

Daily Weather History Graph

Search for Another Location

Airport or City:

Trip Planner

Search our weather history database for the weather conditions in past years. The results will help you decide how hot, cold, wet, or windy it might be!

Date:

Astronomy

May. 23, 2014 Rise Set
Actual Time 5:40 AM CDT 8:22 PM CDT
Civil Twilight 5:08 AM CDT 8:54 PM CDT
Nautical Twilight 4:28 AM CDT 9:34 PM CDT
Astronomical Twilight 3:43 AM CDT 10:20 PM CDT
Moon 2:37 AM CDT (5/23) 3:13 PM CDT (5/23)
Length of Visible Light 15h 45m
Length of Day
14h 41m
Waning Crescent, 27% of the Moon is Illuminated
May 23
Waning Crescent
May 28
New
Jun 5
First Quarter
Jun 12
Full
Jun 19
Last Quarter

Hourly Weather History & Observations

Time (CDT) Temp. Dew Point Humidity Pressure Visibility Wind Dir Wind Speed Gust Speed Precip Events Conditions
12:53 AM 51.1 °F 48.9 °F 92% 30.14 in 10.0 mi Calm Calm - N/A   Clear
1:53 AM 54.0 °F 48.9 °F 83% 30.14 in 10.0 mi NNW 4.6 mph - N/A   Clear
2:53 AM 55.9 °F 51.1 °F 84% 30.14 in 10.0 mi NW 5.8 mph - N/A   Clear
3:53 AM 53.1 °F 50.0 °F 89% 30.14 in 10.0 mi Calm Calm - N/A   Clear
4:53 AM 50.0 °F 48.2 °F 94% 30.15 in 7.0 mi NNW 3.5 mph - N/A   Clear
5:53 AM 46.9 °F 46.9 °F 100% 30.14 in 4.0 mi Calm Calm - N/A   Clear
6:53 AM 54.0 °F 51.1 °F 90% 30.16 in 10.0 mi Calm Calm - N/A   Clear
7:53 AM 61.0 °F 52.0 °F 72% 30.17 in 10.0 mi NNE 5.8 mph - N/A   Clear
8:53 AM 66.0 °F 51.1 °F 59% 30.18 in 10.0 mi NE 3.5 mph - N/A   Clear
9:53 AM 69.8 °F 51.8 °F 53% 30.19 in 10.0 mi NE 6.9 mph - N/A   Clear
10:53 AM 72.0 °F 46.9 °F 41% 30.18 in 10.0 mi North 5.8 mph - N/A   Clear
11:53 AM 73.0 °F 43.0 °F 34% 30.18 in 10.0 mi Calm Calm - N/A   Clear
12:53 PM 77.0 °F 48.0 °F 36% 30.18 in 10.0 mi North 6.9 mph - N/A   Clear
1:53 PM 77.0 °F 46.0 °F 33% 30.16 in 10.0 mi NNE 8.1 mph - N/A   Clear
2:53 PM 78.1 °F 46.9 °F 33% 30.15 in 10.0 mi North 9.2 mph - N/A   Clear
3:53 PM 78.1 °F 45.0 °F 31% 30.13 in 10.0 mi NNE 10.4 mph - N/A   Clear
4:53 PM 79.0 °F 46.0 °F 31% 30.12 in 10.0 mi NNE 6.9 mph - N/A   Clear
5:53 PM 77.0 °F 46.0 °F 33% 30.11 in 10.0 mi NNE 9.2 mph - N/A   Clear
6:53 PM 75.0 °F 45.0 °F 34% 30.10 in 10.0 mi NE 8.1 mph - N/A   Clear
7:53 PM 71.1 °F 46.9 °F 42% 30.10 in 10.0 mi NNE 8.1 mph - N/A   Clear
8:53 PM 68.0 °F 46.9 °F 47% 30.11 in 10.0 mi NE 5.8 mph - N/A   Clear
9:53 PM 64.9 °F 46.9 °F 52% 30.13 in 10.0 mi NE 6.9 mph - N/A   Clear
10:53 PM 63.0 °F 48.0 °F 58% 30.13 in 10.0 mi NE 8.1 mph - N/A   Clear
11:53 PM 62.6 °F 46.4 °F 55% 30.14 in 10.0 mi NE 8.1 mph - N/A   Clear